This demonstration page uses our WeatherBlox Daily Observations layout. Learn more.

Left ArrowRight Arrow

39.51506, -84.39828

Hourly Observations for August 7, 2022

Temp ( °F °C ) Dew Point ( °F °C ) Humidity (%) Winds ( mph kmh ) Pressure ( in mb ) Visibility ( mi km ) Precip ( " mm )
12:15 am 00:15 Clear 72 22 N/A N/A Calm 30.15 1021 10 16 0.00 0.00
12:35 am 00:35 Clear with Mist and Fog 72 22 N/A N/A SW 3 6 30.15 1021 3 5 0.00 0.00
12:55 am 00:55 Clear with Mist and Fog 72 22 N/A N/A W 3 6 30.15 1021 4 6 0.00 0.00
1:15 am 01:15 Clear with Mist and Fog 72 22 N/A N/A W 3 6 30.15 1021 4 6 0.00 0.00
1:35 am 01:35 Clear with Mist and Fog 72 22 N/A N/A SW 3 6 30.15 1021 4 6 0.00 0.00
1:55 am 01:55 Hazy 72 22 N/A N/A SSW 3 6 30.15 1021 5 8 0.00 0.00
2:15 am 02:15 Hazy 72 22 N/A N/A SSW 3 6 30.15 1021 5 8 0.00 0.00
2:35 am 02:35 Clear 72 22 N/A N/A WSW 3 6 30.14 1021 10 16 0.00 0.00
2:55 am 02:55 Clear 72 22 N/A N/A SW 3 6 30.15 1021 10 16 0.00 0.00
3:15 am 03:15 Clear 72 22 N/A N/A SW 3 6 30.15 1021 10 16 0.00 0.00
3:35 am 03:35 Clear 70 21 N/A N/A SW 3 6 30.15 1021 10 16 0.00 0.00
3:55 am 03:55 Clear 70 21 N/A N/A Calm 30.15 1021 10 16 0.00 0.00
4:15 am 04:15 Clear 70 21 N/A N/A SSW 3 6 30.15 1021 10 16 0.00 0.00
4:35 am 04:35 Partly Cloudy 70 21 N/A N/A S 5 7 30.15 1021 10 16 0.00 0.00
4:55 am 04:55 Clear 70 21 N/A N/A S 5 7 30.14 1021 10 16 0.00 0.00
5:15 am 05:15 Clear 70 21 N/A N/A Calm 30.14 1021 7 11 0.00 0.00
5:35 am 05:35 Clear 70 21 N/A N/A Calm 30.14 1021 7 11 0.00 0.00
5:55 am 05:55 Hazy 68 20 N/A N/A W 3 6 30.15 1021 7 11 0.00 0.00
6:15 am 06:15 Hazy 68 20 N/A N/A SW 3 6 30.15 1021 7 11 0.00 0.00
6:35 am 06:35 Clear with Mist and Fog 68 20 N/A N/A Calm 30.15 1021 4 6 0.00 0.00
6:55 am 06:55 Hazy 68 20 N/A N/A Calm 30.15 1021 5 8 0.00 0.00
7:15 am 07:15 Sunny 68 20 N/A N/A Calm 30.15 1021 10 16 0.00 0.00
7:35 am 07:35 Sunny 70 21 N/A N/A SSW 3 6 30.15 1021 10 16 0.00 0.00
7:55 am 07:55 Sunny 72 22.3 72 22.1 99 99 S 3 6 30.16 1021 10 16 0.00 0.00
8:15 am 08:15 Sunny 73 22.7 73 22.5 99 99 SSW 7 11 30.16 1021 10 16 0.00 0.00
8:35 am 08:35 Sunny 74 23.2 72 22.3 95 95 S 7 11 30.16 1021 10 16 0.00 0.00
8:55 am 08:55 Sunny 74 23.6 72 22.4 93 93 SSW 7 11 30.17 1022 10 16 0.00 0.00
9:15 am 09:15 Mostly Cloudy 75 23.9 73 22.7 93 93 SSW 8 13 30.18 1022 10 16 0.00 0.00
9:35 am 09:35 Mostly Cloudy 76 24.6 73 23 91 91 SSW 7 11 30.16 1021 10 16 0.00 0.00
9:55 am 09:55 Partly Cloudy 78 25.3 74 23.1 88 88 S 7 11 30.16 1021 10 16 0.00 0.00
10:15 am 10:15 Sunny 79 26.1 75 23.7 87 87 SW 7 11 30.16 1021 10 16 0.00 0.00
10:35 am 10:35 Sunny 79 26.3 74 23.5 85 85 SSW 6 9 30.16 1021 10 16 0.00 0.00
10:55 am 10:55 Sunny 81 27.2 75 24 83 83 S 9 15 30.16 1021 10 16 0.00 0.00
11:15 am 11:15 Sunny 82 27.7 75 23.7 79 79 SW 8 13 30.16 1021 10 16 0.00 0.00
11:35 am 11:35 Sunny 83 28.1 75 23.9 78 78 S 8 13 30.16 1021 10 16 0.00 0.00
11:55 am 11:55 Sunny 83 28.6 76 24.4 78 78 SW 7 11 30.15 1021 10 16 0.00 0.00
12:15 pm 12:15 Partly Cloudy 84 29 75 23.8 74 74 SSW 8 13 30.14 1021 10 16 0.00 0.00
12:35 pm 12:35 Mostly Cloudy with Haze 85 29.7 76 24.2 72 72 S 8 13 30.13 1020 4 6 0.00 0.00
12:55 pm 12:55 Mostly Cloudy 86 30 74 23.5 68 68 SW 8 13 30.13 1020 10 16 0.00 0.00
1:15 pm 13:15 Partly Cloudy 87 30.3 74 23.5 67 67 SSW 10 17 30.12 1020 10 16 0.00 0.00
1:35 pm 13:35 Partly Cloudy 87 30.3 74 23.5 67 67 SW 10 17 30.11 1020 10 16 0.00 0.00
1:55 pm 13:55 Partly Cloudy 86 30.2 73 22.6 64 64 SSW 12 19 30.11 1020 10 16 0.00 0.00
2:15 pm 14:15 Partly Cloudy 88 31.3 73 22.8 61 61 SSW 13 20 30.10 1019 10 16 0.00 0.00
2:35 pm 14:35 Partly Cloudy 89 31.4 75 24 65 65 SSW 9 15 30.09 1019 10 16 0.00 0.00
2:55 pm 14:55 Mostly Cloudy 87 30.7 73 22.8 63 63 WSW 9 15 30.08 1019 10 16 0.00 0.00
3:15 pm 15:15 Mostly Cloudy 88 31 71 21.9 58 58 SW 10 17 30.07 1018 10 16 0.00 0.00
3:35 pm 15:35 Partly Cloudy 89 31.9 73 22.5 58 58 W 9 15 30.07 1018 10 16 0.00 0.00
3:55 pm 15:55 Partly Cloudy 88 31.1 73 22.5 60 60 W 8 13 30.07 1018 10 16 0.00 0.00
4:15 pm 16:15 Sunny 89 31.7 73 22.5 58 58 WSW 10 17 30.06 1018 10 16 0.00 0.00
4:35 pm 16:35 Partly Cloudy 88 31.1 72 22.3 59 59 WSW 14 22 30.06 1018 10 16 0.00 0.00
4:55 pm 16:55 Partly Cloudy 89 31.8 73 23 60 60 SW 10 17 30.05 1018 10 16 0.00 0.00
5:15 pm 17:15 Sunny 89 31.8 73 22.7 59 59 W 9 15 30.05 1018 10 16 0.00 0.00
5:35 pm 17:35 Sunny 89 31.5 72 22.3 58 58 SSW 12 19 30.04 1017 10 16 0.00 0.00
5:55 pm 17:55 Sunny 87 30.5 73 23 64 64 SSW 10 17 30.05 1018 10 16 0.00 0.00
6:15 pm 18:15 Sunny 87 30.6 73 22.9 64 64 SSW 7 11 30.04 1017 10 16 0.00 0.00
6:35 pm 18:35 Sunny 87 30.6 73 22.7 63 63 SSW 9 15 30.04 1017 10 16 0.00 0.00
6:55 pm 18:55 Sunny 86 30.2 73 22.6 64 64 SSW 8 13 30.05 1018 10 16 0.00 0.00
7:15 pm 19:15 Sunny 85 29.2 73 22.6 68 68 SW 7 11 30.05 1018 10 16 0.00 0.00
7:35 pm 19:35 Sunny 83 28.5 75 23.8 76 76 SW 6 9 30.05 1017 10 16 0.00 0.00
7:55 pm 19:55 Sunny 84 29.1 73 23 70 70 SSW 7 11 30.04 1017 10 16 0.00 0.00
8:15 pm 20:15 Sunny 82 27.9 74 23.4 77 77 SSW 8 13 30.04 1017 10 16 0.00 0.00
8:35 pm 20:35 Sunny 81 27.3 75 23.9 82 82 SW 6 9 30.05 1018 10 16 0.00 0.00
8:55 pm 20:55 Clear 80 26.6 76 24.4 88 88 SW 3 6 30.05 1018 10 16 0.00 0.00
9:15 pm 21:15 Partly Cloudy 79 26 76 24.6 92 92 SSW 7 11 30.05 1018 10 16 0.00 0.00
9:35 pm 21:35 Clear 79 26.1 76 24.3 90 90 SW 6 9 30.06 1018 10 16 0.00 0.00
9:55 pm 21:55 Clear 81 27.3 75 23.8 81 81 S 7 11 30.06 1018 10 16 0.00 0.00
10:15 pm 22:15 Clear 80 26.9 76 24.3 86 86 S 13 20 30.07 1018 10 16 0.00 0.00
10:35 pm 22:35 Clear 80 26.6 72 22.1 76 76 SSW 12 19 30.08 1019 10 16 0.00 0.00
10:55 pm 22:55 Partly Cloudy 79 26 71 21.7 77 77 S 8 13 30.09 1019 10 16 0.00 0.00
11:15 pm 23:15 Partly Cloudy 78 25.8 71 21.4 77 77 S 8 13 30.09 1019 10 16 0.00 0.00
11:35 pm 23:35 Partly Cloudy 78 25.6 71 21.4 78 78 S 8 13 30.08 1019 10 16 0.00 0.00
11:55 pm 23:55 Clear 77 25.1 71 21.5 81 81 S 7 11 30.08 1019 10 16 0.00 0.00

Powered by AerisWeather